| time (UTC) | temp F | wind direction | speed MPH | gust MPH | rain 1hr in | rain 24hr in | rain mn in | humidity % | barometer mb |
| 20260505124508 | 50 | 348 | 1.0 | 5.0 | 0.00 | 0.00 | 0.00 | 97 | 1015.5 |
| 20260505123007 | 50 | 23 | 3.0 | 6.0 | 0.00 | 0.00 | 0.00 | 97 | 1015.4 |
| 20260505121504 | 51 | 23 | 0.0 | 4.0 | 0.00 | 0.00 | 0.00 | 97 | 1015.4 |
| 20260505120004 | 51 | 350 | 0.0 | 4.0 | 0.00 | 0.00 | 0.00 | 96 | 1015.5 |
| 20260505114502 | 51 | 31 | 0.0 | 3.0 | 0.00 | 0.00 | 0.00 | 96 | 1015.4 |
| 20260505113000 | 51 | 5 | 0.0 | 2.0 | 0.00 | 0.00 | 0.00 | 96 | 1015.4 |
| 20260505111558 | 51 | 14 | 1.0 | 2.0 | 0.00 | 0.00 | 0.00 | 96 | 1015.2 |
| 20260505101552 | 51 | 319 | 0.0 | 2.0 | 0.00 | 0.00 | 0.00 | 95 | 1014.7 |
| 20260505100051 | 51 | 3 | 0.0 | 2.0 | 0.00 | 0.00 | 0.00 | 95 | 1014.7 |
| 20260505094550 | 51 | 335 | 0.0 | 1.0 | 0.00 | 0.00 | 0.00 | 95 | 1014.6 |
| 20260505093047 | 52 | 322 | 0.0 | 2.0 | 0.00 | 0.00 | 0.00 | 95 | 1014.5 |
| 20260505091558 | 52 | 46 | 0.0 | 2.0 | 0.00 | 0.00 | 0.00 | 95 | 1014.4 |
| 20260505090055 | 52 | 360 | 0.0 | 0.0 | 0.00 | 0.00 | 0.00 | 95 | 1014.2 |
| 20260505084641 | 52 | 360 | 0.0 | 0.0 | 0.00 | 0.00 | 0.00 | 95 | 1014.2 |
| 20260505083058 | 51 | 1 | 0.0 | 4.0 | 0.00 | 0.00 | 0.00 | 95 | 1014.0 |
| 20260505081553 | 51 | 346 | 0.0 | 2.0 | 0.00 | 0.00 | 0.00 | 95 | 1014.2 |
| 20260505080044 | 51 | 34 | 0.0 | 3.0 | 0.00 | 0.00 | 0.00 | 95 | 1014.0 |
| 20260505074532 | 51 | 33 | 1.0 | 3.0 | 0.00 | 0.00 | 0.00 | 94 | 1013.9 |
| 20260505073040 | 51 | 335 | 0.0 | 2.0 | 0.00 | 0.00 | 0.00 | 94 | 1013.7 |
| 20260505071536 | 52 | 359 | 0.0 | 2.0 | 0.00 | 0.00 | 0.00 | 93 | 1013.4 |
| 20260505070023 | 52 | 13 | 1.0 | 3.0 | 0.00 | 0.00 | 0.00 | 93 | 1013.3 |
| 20260505064518 | 53 | 4 | 1.0 | 3.0 | 0.00 | 0.00 | 0.00 | 92 | 1013.2 |
| 20260505063016 | 53 | 23 | 1.0 | 3.0 | 0.00 | 0.00 | 0.00 | 91 | 1012.9 |
| 20260505061519 | 54 | 25 | 0.0 | 3.0 | 0.00 | 0.00 | 0.00 | 90 | 1012.7 |
| 20260505060015 | 55 | 347 | 0.0 | 3.0 | 0.00 | 0.00 | 0.00 | 89 | 1012.7 |
| 20260505054509 | 55 | 359 | 2.0 | 3.0 | 0.00 | 0.00 | 0.00 | 88 | 1012.6 |
| 20260505053006 | 56 | 17 | 3.0 | 7.0 | 0.00 | 0.00 | 0.00 | 86 | 1012.6 |
| 20260505051504 | 57 | 17 | 0.0 | 3.0 | 0.00 | 0.00 | 0.00 | 86 | 1012.6 |
| 20260505041603 | 61 | 14 | 1.0 | 2.0 | 0.00 | 0.00 | 0.00 | 80 | 1012.2 |
| 20260505040057 | 62 | 65 | 0.0 | 4.0 | 0.00 | 0.00 | 0.00 | 79 | 1011.8 |
| 20260505034552 | 63 | 42 | 0.0 | 4.0 | 0.00 | 0.00 | 0.00 | 78 | 1011.6 |
| 20260505033051 | 65 | 60 | 2.0 | 5.0 | 0.00 | 0.00 | 0.00 | 75 | 1011.4 |
| 20260505031552 | 68 | 358 | 2.0 | 4.0 | 0.00 | 0.00 | 0.00 | 75 | 1011.2 |
| 20260505030108 | 69 | 261 | 0.0 | 2.0 | 0.00 | 0.00 | 0.00 | 73 | 1011.1 |
| 20260505024550 | 70 | 231 | 0.0 | 4.0 | 0.00 | 0.00 | 0.00 | 71 | 1011.0 |
| 20260505023045 | 72 | 179 | 1.0 | 4.0 | 0.00 | 0.00 | 0.00 | 68 | 1010.8 |
| 20260505021543 | 73 | 216 | 1.0 | 4.0 | 0.00 | 0.00 | 0.00 | 66 | 1010.8 |
| 20260505020043 | 73 | 210 | 1.0 | 5.0 | 0.00 | 0.00 | 0.00 | 67 | 1010.9 |
| 20260505014601 | 73 | 173 | 1.0 | 4.0 | 0.00 | 0.00 | 0.00 | 66 | 1010.8 |
| 20260505013048 | 73 | 215 | 0.0 | 6.0 | 0.00 | 0.00 | 0.00 | 67 | 1010.9 |
| 20260505011541 | 73 | 261 | 2.0 | 7.0 | 0.00 | 0.00 | 0.00 | 67 | 1011.0 |
| 20260505010039 | 73 | 177 | 1.0 | 6.0 | 0.00 | 0.00 | 0.00 | 66 | 1010.9 |
| 20260505004545 | 73 | 229 | 1.0 | 4.0 | 0.00 | 0.00 | 0.00 | 65 | 1011.1 |
| 20260505003050 | 73 | 260 | 2.0 | 5.0 | 0.00 | 0.00 | 0.00 | 63 | 1010.9 |
| 20260505001526 | 73 | 202 | 1.0 | 7.0 | 0.00 | 0.00 | 0.00 | 65 | 1011.0 |
| 20260505000030 | 72 | 236 | 2.0 | 10.0 | 0.00 | 0.00 | 0.00 | 66 | 1011.2 |
| 20260504234621 | 71 | 182 | 3.0 | 7.0 | 0.00 | 0.00 | 0.00 | 66 | 1011.2 |
| 20260504233022 | 72 | 101 | 1.0 | 5.0 | 0.00 | 0.00 | 0.00 | 64 | 1011.2 |
| 20260504231518 | 71 | 208 | 1.0 | 5.0 | 0.00 | 0.00 | 0.00 | 66 | 1011.3 |
| 20260504230015 | 71 | 207 | 2.0 | 6.0 | 0.00 | 0.00 | 0.00 | 67 | 1011.4 |
| 20260504224517 | 71 | 221 | 2.0 | 8.0 | 0.00 | 0.00 | 0.00 | 67 | 1011.5 |
| 20260504223014 | 69 | 238 | 2.0 | 7.0 | 0.00 | 0.00 | 0.00 | 68 | 1011.9 |
| 20260504221508 | 69 | 233 | 1.0 | 7.0 | 0.00 | 0.00 | 0.00 | 69 | 1012.1 |
| 20260504220006 | 68 | 272 | 2.0 | 7.0 | 0.00 | 0.00 | 0.00 | 69 | 1012.2 |
| 20260504214504 | 68 | 262 | 1.0 | 7.0 | 0.00 | 0.00 | 0.00 | 70 | 1012.2 |
| 20260504213006 | 66 | 288 | 2.0 | 8.0 | 0.00 | 0.00 | 0.00 | 70 | 1012.4 |
| 20260504211652 | 66 | 207 | 1.0 | 7.0 | 0.00 | 0.00 | 0.00 | 71 | 1012.6 |
| 20260504210057 | 65 | 186 | 1.0 | 8.0 | 0.00 | 0.00 | 0.00 | 73 | 1012.8 |
| 20260504204556 | 65 | 98 | 3.0 | 8.0 | 0.00 | 0.00 | 0.00 | 72 | 1012.8 |
| 20260504203053 | 64 | 130 | 2.0 | 6.0 | 0.00 | 0.00 | 0.00 | 74 | 1013.0 |
| 20260504201555 | 64 | 151 | 2.0 | 7.0 | 0.00 | 0.00 | 0.00 | 75 | 1013.0 |
| 20260504200052 | 62 | 229 | 3.0 | 7.0 | 0.00 | 0.00 | 0.00 | 76 | 1013.2 |
| 20260504194551 | 62 | 136 | 3.0 | 7.0 | 0.00 | 0.00 | 0.00 | 76 | 1013.2 |
| 20260504193045 | 61 | 72 | 1.0 | 7.0 | 0.00 | 0.00 | 0.00 | 78 | 1013.2 |
| 20260504191641 | 61 | 209 | 2.0 | 7.0 | 0.00 | 0.00 | 0.00 | 79 | 1013.3 |
| 20260504190044 | 60 | 177 | 0.0 | 7.0 | 0.00 | 0.00 | 0.00 | 81 | 1013.3 |
| 20260504184546 | 59 | 148 | 3.0 | 9.0 | 0.00 | 0.00 | 0.00 | 81 | 1013.5 |
| 20260504183035 | 58 | 219 | 4.0 | 7.0 | 0.00 | 0.00 | 0.00 | 82 | 1013.3 |
| 20260504181535 | 58 | 194 | 2.0 | 7.0 | 0.00 | 0.00 | 0.00 | 83 | 1013.3 |
| 20260504180032 | 57 | 148 | 4.0 | 10.0 | 0.00 | 0.00 | 0.00 | 82 | 1013.3 |
| 20260504174528 | 56 | 108 | 3.0 | 9.0 | 0.00 | 0.00 | 0.00 | 84 | 1013.4 |
| 20260504173026 | 56 | 199 | 2.0 | 8.0 | 0.00 | 0.00 | 0.00 | 85 | 1013.4 |
| 20260504171523 | 56 | 194 | 2.0 | 7.0 | 0.00 | 0.00 | 0.00 | 85 | 1013.2 |